| time (UTC) | temp F | wind direction | speed MPH | gust MPH | rain 1hr in | rain 24hr in | rain mn in | humidity % | barometer mb |
| 20260901234205 | 66 | 164 | 1.0 | 3.0 | 0.00 | 0.00 | 0.00 | 74 | 1007.4 |
| 20260901232705 | 66 | 147 | 1.0 | 3.0 | 0.00 | 0.00 | 0.00 | 73 | 1007.3 |
| 20260901231705 | 67 | 156 | 1.0 | 3.0 | 0.00 | 0.00 | 0.00 | 72 | 1007.3 |
| 20260901230704 | 67 | 177 | 1.0 | 2.0 | 0.00 | 0.00 | 0.00 | 73 | 1007.3 |
| 20260901230204 | 67 | 172 | 1.0 | 3.0 | 0.00 | 0.00 | 0.00 | 73 | 1007.3 |
| 20260901225705 | 67 | 155 | 1.0 | 2.0 | 0.00 | 0.00 | 0.00 | 72 | 1007.3 |
| 20260901223205 | 67 | 144 | 1.0 | 2.0 | 0.00 | 0.00 | 0.00 | 74 | 1007.3 |
| 20260901222704 | 67 | 156 | 1.0 | 3.0 | 0.00 | 0.00 | 0.00 | 73 | 1007.3 |
| 20260901221705 | 67 | 175 | 1.0 | 2.0 | 0.00 | 0.00 | 0.00 | 72 | 1007.3 |
| 20260901221205 | 68 | 153 | 1.0 | 2.0 | 0.00 | 0.00 | 0.00 | 73 | 1007.4 |
| 20260901220705 | 67 | 137 | 1.0 | 2.0 | 0.00 | 0.00 | 0.00 | 72 | 1007.5 |
| 20260901215204 | 67 | 180 | 0.0 | 2.0 | 0.00 | 0.00 | 0.00 | 72 | 1007.6 |
| 20260901214205 | 68 | 162 | 1.0 | 3.0 | 0.00 | 0.00 | 0.00 | 72 | 1007.5 |
| 20260901213705 | 68 | 167 | 1.0 | 2.0 | 0.00 | 0.00 | 0.00 | 72 | 1007.5 |
| 20260901212704 | 67 | 144 | 1.0 | 2.0 | 0.00 | 0.00 | 0.00 | 74 | 1007.6 |
| 20260901211704 | 68 | 144 | 1.0 | 2.0 | 0.00 | 0.00 | 0.00 | 73 | 1007.7 |
| 20260901210204 | 67 | 232 | 1.0 | 2.0 | 0.00 | 0.00 | 0.00 | 73 | 1007.8 |
| 20260901205705 | 67 | 162 | 1.0 | 3.0 | 0.00 | 0.00 | 0.00 | 72 | 1007.8 |
| 20260901205204 | 68 | 159 | 1.0 | 3.0 | 0.00 | 0.00 | 0.00 | 71 | 1007.8 |
| 20260901204204 | 70 | 193 | 1.0 | 2.0 | 0.00 | 0.00 | 0.00 | 69 | 1007.7 |
| 20260901203704 | 70 | 203 | 1.0 | 3.0 | 0.00 | 0.00 | 0.00 | 69 | 1007.8 |
| 20260901203205 | 69 | 172 | 1.0 | 3.0 | 0.00 | 0.00 | 0.00 | 70 | 1007.8 |
| 20260901202705 | 68 | 150 | 1.0 | 3.0 | 0.00 | 0.00 | 0.00 | 72 | 1007.8 |
| 20260901202205 | 68 | 160 | 1.0 | 2.0 | 0.00 | 0.00 | 0.00 | 72 | 1007.9 |
| 20260901201705 | 68 | 154 | 1.0 | 3.0 | 0.00 | 0.00 | 0.00 | 73 | 1007.9 |
| 20260901200705 | 67 | 140 | 1.0 | 3.0 | 0.00 | 0.00 | 0.00 | 73 | 1007.9 |
| 20260901200204 | 67 | 259 | 1.0 | 2.0 | 0.00 | 0.00 | 0.00 | 74 | 1007.8 |
| 20260901195705 | 67 | 191 | 1.0 | 3.0 | 0.00 | 0.00 | 0.00 | 75 | 1007.9 |
| 20260901193705 | 68 | 157 | 1.0 | 3.0 | 0.00 | 0.00 | 0.00 | 73 | 1008.0 |
| 20260901193204 | 68 | 151 | 1.0 | 2.0 | 0.00 | 0.00 | 0.00 | 74 | 1008.0 |
| 20260901192705 | 68 | 171 | 1.0 | 3.0 | 0.00 | 0.00 | 0.00 | 73 | 1008.0 |
| 20260901191204 | 67 | 154 | 1.0 | 3.0 | 0.00 | 0.00 | 0.00 | 75 | 1008.1 |
| 20260901190705 | 66 | 157 | 1.0 | 2.0 | 0.00 | 0.00 | 0.00 | 76 | 1008.2 |
| 20260901185705 | 66 | 170 | 1.0 | 2.0 | 0.00 | 0.00 | 0.00 | 77 | 1008.2 |
| 20260901184705 | 64 | 180 | 1.0 | 2.0 | 0.00 | 0.00 | 0.00 | 78 | 1008.1 |
| 20260901184205 | 64 | 154 | 1.0 | 3.0 | 0.00 | 0.00 | 0.00 | 80 | 1008.2 |
| 20260901183204 | 64 | 146 | 0.0 | 1.0 | 0.00 | 0.00 | 0.00 | 80 | 1008.2 |
| 20260901181204 | 63 | 154 | 0.0 | 2.0 | 0.00 | 0.00 | 0.00 | 83 | 1008.2 |
| 20260901180704 | 63 | 180 | 0.0 | 2.0 | 0.00 | 0.00 | 0.00 | 83 | 1008.2 |
| 20260901174705 | 61 | 180 | 0.0 | 2.0 | 0.00 | 0.00 | 0.00 | 85 | 1008.1 |
| 20260901174205 | 61 | 115 | 0.0 | 2.0 | 0.00 | 0.00 | 0.00 | 86 | 1008.2 |
| 20260901173705 | 61 | 143 | 0.0 | 2.0 | 0.00 | 0.00 | 0.00 | 86 | 1008.2 |
| 20260901173204 | 61 | 155 | 1.0 | 2.0 | 0.00 | 0.00 | 0.00 | 87 | 1008.1 |
| 20260901171204 | 60 | 157 | 1.0 | 2.0 | 0.00 | 0.00 | 0.00 | 87 | 1008.2 |
| 20260901170705 | 60 | 122 | 1.0 | 2.0 | 0.00 | 0.00 | 0.00 | 88 | 1008.1 |
| 20260901170205 | 60 | 140 | 1.0 | 2.0 | 0.00 | 0.00 | 0.00 | 87 | 1008.1 |
| 20260901164205 | 61 | 150 | 1.0 | 2.0 | 0.00 | 0.00 | 0.00 | 87 | 1008.1 |
| 20260901163704 | 61 | 150 | 0.0 | 0.0 | 0.00 | 0.00 | 0.00 | 87 | 1008.1 |
| 20260901163204 | 60 | 147 | 0.0 | 0.0 | 0.00 | 0.00 | 0.00 | 87 | 1008.1 |
| 20260901161704 | 60 | 178 | 0.0 | 0.0 | 0.00 | 0.00 | 0.00 | 88 | 1008.1 |
| 20260901161205 | 60 | 168 | 0.0 | 0.0 | 0.00 | 0.00 | 0.00 | 88 | 1008.1 |
| 20260901155704 | 60 | 165 | 0.0 | 0.0 | 0.00 | 0.00 | 0.00 | 89 | 1008.1 |
| 20260901155205 | 60 | 162 | 0.0 | 0.0 | 0.00 | 0.00 | 0.00 | 89 | 1008.2 |
| 20260901154204 | 59 | 164 | 0.0 | 0.0 | 0.00 | 0.00 | 0.00 | 90 | 1008.2 |
| 20260901153705 | 59 | 160 | 0.0 | 0.0 | 0.00 | 0.00 | 0.00 | 90 | 1008.3 |
| 20260901152704 | 59 | 165 | 0.0 | 0.0 | 0.00 | 0.00 | 0.00 | 90 | 1008.3 |
| 20260901152205 | 59 | 165 | 0.0 | 0.0 | 0.00 | 0.00 | 0.00 | 90 | 1008.3 |
| 20260901151705 | 59 | 121 | 0.0 | 0.0 | 0.00 | 0.00 | 0.00 | 90 | 1008.3 |
| 20260901151204 | 59 | 121 | 0.0 | 0.0 | 0.00 | 0.00 | 0.00 | 90 | 1008.3 |
| 20260901150204 | 59 | 110 | 0.0 | 0.0 | 0.00 | 0.00 | 0.00 | 91 | 1008.2 |
| 20260901145704 | 58 | 110 | 0.0 | 0.0 | 0.00 | 0.00 | 0.00 | 91 | 1008.2 |
| 20260901144704 | 58 | 110 | 0.0 | 0.0 | 0.00 | 0.00 | 0.00 | 91 | 1008.1 |
| 20260901142204 | 57 | 110 | 0.0 | 0.0 | 0.00 | 0.00 | 0.00 | 91 | 1008.1 |
| 20260901141704 | 57 | 110 | 0.0 | 0.0 | 0.00 | 0.00 | 0.00 | 91 | 1008.1 |
| 20260901140705 | 57 | 110 | 0.0 | 0.0 | 0.00 | 0.00 | 0.00 | 91 | 1008.1 |
| 20260901140204 | 56 | 110 | 0.0 | 0.0 | 0.00 | 0.00 | 0.00 | 90 | 1008.1 |
| 20260901135204 | 56 | 110 | 0.0 | 0.0 | 0.00 | 0.00 | 0.00 | 89 | 1008.0 |
| 20260901134205 | 56 | 110 | 0.0 | 0.0 | 0.00 | 0.00 | 0.00 | 89 | 1007.9 |
| 20260901132704 | 56 | 110 | 0.0 | 0.0 | 0.00 | 0.00 | 0.00 | 89 | 1007.8 |
| 20260901131704 | 56 | 110 | 0.0 | 0.0 | 0.00 | 0.00 | 0.00 | 88 | 1007.7 |
| 20260901125205 | 56 | 110 | 0.0 | 0.0 | 0.00 | 0.00 | 0.00 | 87 | 1007.5 |
| 20260901124705 | 56 | 110 | 0.0 | 0.0 | 0.00 | 0.00 | 0.00 | 87 | 1007.4 |
| 20260901124204 | 56 | 110 | 0.0 | 0.0 | 0.00 | 0.00 | 0.00 | 87 | 1007.4 |
| 20260901123704 | 56 | 110 | 0.0 | 0.0 | 0.00 | 0.00 | 0.00 | 87 | 1007.4 |
| 20260901121704 | 56 | 110 | 0.0 | 0.0 | 0.00 | 0.00 | 0.00 | 86 | 1007.3 |
| 20260901121204 | 56 | 110 | 0.0 | 0.0 | 0.00 | 0.00 | 0.00 | 87 | 1007.3 |
| 20260901120704 | 56 | 110 | 0.0 | 0.0 | 0.00 | 0.00 | 0.00 | 87 | 1007.2 |
| 20260901113704 | 56 | 110 | 0.0 | 0.0 | 0.00 | 0.00 | 0.00 | 86 | 1007.3 |
| 20260901113205 | 56 | 110 | 0.0 | 0.0 | 0.00 | 0.00 | 0.00 | 86 | 1007.3 |
| 20260901112204 | 56 | 110 | 0.0 | 0.0 | 0.00 | 0.00 | 0.00 | 85 | 1007.3 |
| 20260901111204 | 56 | 110 | 0.0 | 0.0 | 0.00 | 0.00 | 0.00 | 86 | 1007.4 |
| 20260901110205 | 56 | 110 | 0.0 | 0.0 | 0.00 | 0.00 | 0.00 | 86 | 1007.3 |
| 20260901105704 | 56 | 110 | 0.0 | 0.0 | 0.00 | 0.00 | 0.00 | 85 | 1007.3 |
| 20260901105204 | 56 | 110 | 0.0 | 0.0 | 0.00 | 0.00 | 0.00 | 85 | 1007.3 |
| 20260901104704 | 56 | 110 | 0.0 | 0.0 | 0.00 | 0.00 | 0.00 | 85 | 1007.3 |
| 20260901104204 | 56 | 110 | 0.0 | 0.0 | 0.00 | 0.00 | 0.00 | 86 | 1007.4 |
| 20260901103704 | 56 | 110 | 0.0 | 0.0 | 0.00 | 0.00 | 0.00 | 85 | 1007.4 |
| 20260901103204 | 56 | 110 | 0.0 | 0.0 | 0.00 | 0.00 | 0.00 | 85 | 1007.4 |
| 20260901102704 | 56 | 110 | 0.0 | 0.0 | 0.00 | 0.00 | 0.00 | 86 | 1007.4 |
| 20260901102204 | 56 | 110 | 0.0 | 0.0 | 0.00 | 0.00 | 0.00 | 86 | 1007.4 |
| 20260901101205 | 56 | 110 | 0.0 | 0.0 | 0.00 | 0.00 | 0.00 | 86 | 1007.4 |
| 20260901095705 | 56 | 110 | 0.0 | 0.0 | 0.00 | 0.00 | 0.00 | 86 | 1007.2 |
| 20260901095204 | 56 | 110 | 0.0 | 0.0 | 0.00 | 0.00 | 0.00 | 86 | 1007.2 |
| 20260901094705 | 56 | 110 | 0.0 | 0.0 | 0.00 | 0.00 | 0.00 | 85 | 1007.2 |
| 20260901093704 | 56 | 110 | 0.0 | 0.0 | 0.00 | 0.00 | 0.00 | 85 | 1007.1 |
| 20260901091205 | 56 | 110 | 0.0 | 0.0 | 0.00 | 0.00 | 0.00 | 86 | 1007.3 |
| 20260901084704 | 57 | 110 | 0.0 | 0.0 | 0.00 | 0.00 | 0.00 | 82 | 1007.1 |
| 20260901084204 | 57 | 110 | 0.0 | 0.0 | 0.00 | 0.00 | 0.00 | 82 | 1007.1 |
| 20260901083204 | 58 | 110 | 0.0 | 0.0 | 0.00 | 0.00 | 0.00 | 82 | 1007.0 |
| 20260901082704 | 58 | 110 | 0.0 | 0.0 | 0.00 | 0.00 | 0.00 | 82 | 1007.0 |
| 20260901075704 | 58 | 136 | 0.0 | 0.0 | 0.00 | 0.00 | 0.00 | 83 | 1006.9 |
| 20260901075205 | 58 | 107 | 0.0 | 0.0 | 0.00 | 0.00 | 0.00 | 83 | 1006.9 |
| 20260901074704 | 58 | 156 | 0.0 | 0.0 | 0.00 | 0.00 | 0.00 | 83 | 1006.8 |
| 20260901074204 | 58 | 98 | 0.0 | 0.0 | 0.00 | 0.00 | 0.00 | 82 | 1006.8 |
| 20260901073205 | 59 | 93 | 0.0 | 0.0 | 0.00 | 0.00 | 0.00 | 82 | 1006.8 |
| 20260901072704 | 59 | 93 | 0.0 | 0.0 | 0.00 | 0.00 | 0.00 | 82 | 1006.9 |
| 20260901072204 | 59 | 93 | 0.0 | 0.0 | 0.00 | 0.00 | 0.00 | 81 | 1006.9 |
| 20260901070705 | 60 | 93 | 0.0 | 0.0 | 0.00 | 0.00 | 0.00 | 78 | 1006.7 |
| 20260901070205 | 60 | 93 | 0.0 | 0.0 | 0.00 | 0.00 | 0.00 | 78 | 1006.7 |
| 20260901065204 | 60 | 93 | 0.0 | 0.0 | 0.00 | 0.00 | 0.00 | 79 | 1006.8 |
| 20260901064704 | 60 | 93 | 0.0 | 0.0 | 0.00 | 0.00 | 0.00 | 78 | 1006.8 |
| 20260901064204 | 60 | 93 | 0.0 | 0.0 | 0.00 | 0.00 | 0.00 | 76 | 1006.8 |
| 20260901063704 | 61 | 93 | 0.0 | 0.0 | 0.00 | 0.00 | 0.00 | 76 | 1006.9 |
| 20260901061205 | 61 | 93 | 0.0 | 0.0 | 0.00 | 0.00 | 0.00 | 77 | 1006.8 |
| 20260901055204 | 62 | 97 | 0.0 | 0.0 | 0.00 | 0.00 | 0.00 | 77 | 1006.9 |
| 20260901054204 | 62 | 66 | 0.0 | 0.0 | 0.00 | 0.00 | 0.00 | 76 | 1007.1 |
| 20260901053204 | 62 | 113 | 0.0 | 0.0 | 0.00 | 0.00 | 0.00 | 77 | 1007.2 |
| 20260901052704 | 62 | 113 | 0.0 | 0.0 | 0.00 | 0.00 | 0.00 | 76 | 1007.2 |
| 20260901052205 | 62 | 110 | 0.0 | 0.0 | 0.00 | 0.00 | 0.00 | 75 | 1007.2 |
| 20260901051204 | 62 | 125 | 0.0 | 0.0 | 0.00 | 0.00 | 0.00 | 75 | 1007.2 |
| 20260901044704 | 62 | 125 | 0.0 | 0.0 | 0.00 | 0.00 | 0.00 | 73 | 1007.4 |
| 20260901044204 | 62 | 125 | 0.0 | 2.0 | 0.00 | 0.00 | 0.00 | 73 | 1007.3 |
| 20260901042704 | 63 | 125 | 0.0 | 0.0 | 0.00 | 0.00 | 0.00 | 72 | 1007.3 |
| 20260901041704 | 63 | 86 | 0.0 | 1.0 | 0.00 | 0.00 | 0.00 | 73 | 1007.3 |
| 20260901041204 | 63 | 197 | 0.0 | 2.0 | 0.00 | 0.00 | 0.00 | 72 | 1007.3 |
| 20260901040704 | 63 | 197 | 0.0 | 1.0 | 0.00 | 0.00 | 0.00 | 71 | 1007.2 |
| 20260901035704 | 64 | 122 | 0.0 | 1.0 | 0.00 | 0.00 | 0.00 | 71 | 1007.2 |
| 20260901034204 | 64 | 120 | 0.0 | 2.0 | 0.00 | 0.00 | 0.00 | 73 | 1006.9 |
| 20260901032204 | 65 | 115 | 0.0 | 2.0 | 0.00 | 0.00 | 0.00 | 71 | 1006.7 |
| 20260901031704 | 65 | 115 | 0.0 | 1.0 | 0.00 | 0.00 | 0.00 | 70 | 1006.7 |
| 20260901031204 | 66 | 115 | 0.0 | 2.0 | 0.00 | 0.00 | 0.00 | 69 | 1006.7 |
| 20260901030704 | 66 | 115 | 0.0 | 2.0 | 0.00 | 0.00 | 0.00 | 69 | 1006.6 |
| 20260901030204 | 66 | 115 | 0.0 | 2.0 | 0.00 | 0.00 | 0.00 | 70 | 1006.6 |
| 20260901025204 | 67 | 161 | 0.0 | 2.0 | 0.00 | 0.00 | 0.00 | 66 | 1006.7 |
| 20260901024704 | 67 | 161 | 0.0 | 2.0 | 0.00 | 0.00 | 0.00 | 67 | 1006.7 |
| 20260901023704 | 67 | 192 | 0.0 | 2.0 | 0.00 | 0.00 | 0.00 | 69 | 1006.7 |
| 20260901023204 | 67 | 192 | 0.0 | 1.0 | 0.00 | 0.00 | 0.00 | 69 | 1006.7 |
| 20260901022204 | 67 | 215 | 0.0 | 2.0 | 0.00 | 0.00 | 0.00 | 68 | 1006.8 |
| 20260901020704 | 68 | 17 | 0.0 | 2.0 | 0.00 | 0.00 | 0.00 | 67 | 1006.8 |
| 20260901020204 | 68 | 171 | 0.0 | 2.0 | 0.00 | 0.00 | 0.00 | 66 | 1006.9 |
| 20260901015704 | 68 | 149 | 1.0 | 2.0 | 0.00 | 0.00 | 0.00 | 65 | 1006.8 |
| 20260901014705 | 68 | 16 | 1.0 | 3.0 | 0.00 | 0.00 | 0.00 | 65 | 1006.8 |
| 20260901014204 | 69 | 224 | 1.0 | 2.0 | 0.00 | 0.00 | 0.00 | 64 | 1006.9 |
| 20260901011204 | 70 | 311 | 0.0 | 2.0 | 0.00 | 0.00 | 0.00 | 61 | 1007.0 |
| 20260901004705 | 70 | 350 | 0.0 | 2.0 | 0.00 | 0.00 | 0.00 | 62 | 1007.0 |
| 20260901004204 | 70 | 305 | 0.0 | 3.0 | 0.00 | 0.00 | 0.00 | 63 | 1007.1 |
| 20260901003705 | 70 | 332 | 1.0 | 3.0 | 0.00 | 0.00 | 0.00 | 59 | 1007.1 |
| 20260901003204 | 70 | 32 | 1.0 | 2.0 | 0.00 | 0.00 | 0.00 | 59 | 1007.1 |
| 20260901000205 | 71 | 288 | 1.0 | 3.0 | 0.00 | 0.00 | 0.00 | 57 | 1007.2 |
| 20260831235204 | 71 | 10 | 1.0 | 6.0 | 0.00 | 0.00 | 0.00 | 57 | 1007.3 |